| time (UTC) | temp F | wind direction | speed knots | gust knots | rain 1hr in | rain 24hr in | rain mn in | humidity % | barometer mb |
| 20260905020108 | 58 | 0 | 0.0 | 0.0 | 0.01 | 0.44 | 0.42 | 95 | 1015.2 |
| 20260905014559 | 58 | 0 | 0.0 | 0.0 | 0.02 | 0.45 | 0.42 | 95 | 1015.1 |
| 20260905013050 | 58 | 0 | 0.0 | 0.0 | 0.03 | 0.45 | 0.42 | 95 | 1015.0 |
| 20260905011605 | 58 | 0 | 0.0 | 0.0 | 0.04 | 0.45 | 0.42 | 95 | 1014.9 |
| 20260905010055 | 57 | 0 | 0.0 | 0.9 | 0.06 | 0.44 | 0.41 | 95 | 1014.7 |
| 20260905004555 | 57 | 0 | 0.0 | 0.0 | 0.07 | 0.44 | 0.40 | 94 | 1014.7 |
| 20260905003102 | 57 | 0 | 0.0 | 0.0 | 0.06 | 0.43 | 0.39 | 94 | 1014.4 |
| 20260905001558 | 57 | 0 | 0.0 | 0.0 | 0.05 | 0.42 | 0.38 | 94 | 1014.3 |
| 20260905000055 | 58 | 0 | 0.0 | 0.0 | 0.04 | 0.39 | 0.35 | 94 | 1014.2 |
| 20260904234558 | 58 | 0 | 0.0 | 0.0 | 0.06 | 0.37 | 0.33 | 93 | 1014.2 |
| 20260904233052 | 58 | 0 | 0.0 | 0.0 | 0.08 | 0.37 | 0.33 | 94 | 1014.1 |
| 20260904231559 | 58 | 0 | 0.0 | 0.0 | 0.11 | 0.37 | 0.33 | 93 | 1014.1 |
| 20260904230055 | 58 | 0 | 0.0 | 2.6 | 0.11 | 0.35 | 0.31 | 92 | 1014.1 |
| 20260904224604 | 59 | 0 | 0.0 | 0.9 | 0.08 | 0.33 | 0.27 | 93 | 1014.0 |
| 20260904223104 | 59 | 0 | 0.0 | 1.7 | 0.08 | 0.31 | 0.25 | 93 | 1013.9 |
| 20260904221600 | 59 | 0 | 0.0 | 0.0 | 0.07 | 0.28 | 0.22 | 93 | 1013.8 |
| 20260904220058 | 59 | 0 | 0.0 | 0.9 | 0.06 | 0.26 | 0.20 | 92 | 1013.7 |
| 20260904214553 | 60 | 0 | 0.0 | 0.0 | 0.04 | 0.29 | 0.18 | 92 | 1013.6 |
| 20260904213055 | 60 | 0 | 0.0 | 0.0 | 0.02 | 0.27 | 0.16 | 91 | 1013.6 |
| 20260904211554 | 60 | 0 | 0.0 | 0.0 | 0.01 | 0.26 | 0.15 | 90 | 1013.5 |
| 20260904210106 | 61 | 0 | 0.0 | 0.9 | 0.00 | 0.25 | 0.14 | 88 | 1013.2 |
| 20260904204556 | 61 | 0 | 0.0 | 0.9 | 0.00 | 0.25 | 0.14 | 88 | 1013.2 |
| 20260904203056 | 61 | 0 | 0.0 | 0.9 | 0.00 | 0.25 | 0.14 | 87 | 1013.0 |
| 20260904201610 | 61 | 0 | 0.0 | 0.9 | 0.00 | 0.25 | 0.14 | 85 | 1013.0 |
| 20260904200052 | 61 | 0 | 0.0 | 2.6 | 0.00 | 0.25 | 0.14 | 85 | 1013.0 |
| 20260904194608 | 61 | 0 | 0.0 | 2.6 | 0.00 | 0.25 | 0.14 | 85 | 1013.1 |
| 20260904193054 | 61 | 217 | 0.0 | 1.7 | 0.00 | 0.25 | 0.14 | 85 | 1013.1 |
| 20260904191557 | 61 | 0 | 0.0 | 4.3 | 0.00 | 0.25 | 0.14 | 87 | 1013.1 |
| 20260904184600 | 60 | 0 | 0.0 | 1.7 | 0.01 | 0.25 | 0.14 | 89 | 1013.1 |
| 20260904183054 | 59 | 0 | 0.0 | 4.3 | 0.01 | 0.25 | 0.14 | 89 | 1013.1 |
| 20260904181553 | 58 | 0 | 0.0 | 1.7 | 0.01 | 0.25 | 0.14 | 93 | 1013.0 |
| 20260904180059 | 57 | 0 | 0.0 | 3.5 | 0.01 | 0.25 | 0.14 | 92 | 1012.8 |
| 20260904174552 | 57 | 232 | 0.9 | 2.6 | 0.02 | 0.24 | 0.13 | 92 | 1012.8 |
| 20260904173127 | 56 | 0 | 0.0 | 1.7 | 0.03 | 0.24 | 0.13 | 93 | 1012.8 |
| 20260904171608 | 56 | 0 | 0.0 | 0.9 | 0.03 | 0.24 | 0.13 | 92 | 1012.8 |
| 20260904170058 | 57 | 0 | 0.0 | 2.6 | 0.03 | 0.24 | 0.13 | 91 | 1012.5 |
| 20260904164605 | 57 | 0 | 0.0 | 0.9 | 0.01 | 0.22 | 0.11 | 89 | 1012.5 |
| 20260904163101 | 57 | 0 | 0.0 | 2.6 | 0.00 | 0.21 | 0.10 | 87 | 1012.4 |
| 20260904161557 | 57 | 0 | 0.0 | 7.0 | 0.00 | 0.21 | 0.10 | 89 | 1012.1 |
| 20260904160055 | 56 | 0 | 0.9 | 5.2 | 0.00 | 0.21 | 0.10 | 88 | 1012.1 |
| 20260904154553 | 55 | 0 | 0.9 | 3.5 | 0.00 | 0.21 | 0.10 | 90 | 1012.1 |
| 20260904153101 | 55 | 0 | 0.0 | 0.9 | 0.00 | 0.21 | 0.10 | 95 | 1012.0 |
| 20260904151605 | 54 | 0 | 0.0 | 0.9 | 0.00 | 0.21 | 0.10 | 95 | 1011.9 |
| 20260904150113 | 54 | 0 | 0.0 | 0.0 | 0.00 | 0.21 | 0.10 | 95 | 1011.8 |
| 20260904144603 | 53 | 0 | 0.0 | 1.7 | 0.00 | 0.21 | 0.10 | 95 | 1011.7 |
| 20260904143101 | 53 | 0 | 0.0 | 0.0 | 0.00 | 0.21 | 0.10 | 95 | 1011.5 |
| 20260904141606 | 53 | 0 | 0.0 | 0.0 | 0.00 | 0.21 | 0.10 | 94 | 1011.3 |
| 20260904140106 | 53 | 0 | 0.0 | 0.0 | 0.00 | 0.21 | 0.10 | 94 | 1011.2 |
| 20260904134559 | 53 | 0 | 0.0 | 0.0 | 0.00 | 0.21 | 0.10 | 95 | 1011.0 |
| 20260904133058 | 53 | 0 | 0.0 | 0.0 | 0.00 | 0.21 | 0.10 | 95 | 1010.8 |
| 20260904131557 | 53 | 0 | 0.0 | 0.0 | 0.00 | 0.21 | 0.10 | 94 | 1010.7 |
| 20260904130053 | 53 | 0 | 0.0 | 0.0 | 0.00 | 0.21 | 0.10 | 94 | 1010.6 |
| 20260904124603 | 53 | 0 | 0.0 | 0.0 | 0.00 | 0.21 | 0.10 | 94 | 1010.6 |
| 20260904123057 | 53 | 0 | 0.0 | 0.0 | 0.00 | 0.21 | 0.10 | 94 | 1010.5 |
| 20260904121600 | 53 | 0 | 0.0 | 0.9 | 0.00 | 0.21 | 0.10 | 94 | 1010.4 |
| 20260904120108 | 53 | 0 | 0.0 | 1.7 | 0.00 | 0.21 | 0.10 | 94 | 1010.4 |
| 20260904114556 | 53 | 0 | 0.0 | 2.6 | 0.00 | 0.21 | 0.10 | 94 | 1010.4 |
| 20260904113055 | 53 | 0 | 0.0 | 3.5 | 0.00 | 0.21 | 0.10 | 93 | 1010.2 |
| 20260904111552 | 53 | 0 | 0.0 | 2.6 | 0.01 | 0.21 | 0.10 | 93 | 1010.1 |
| 20260904104556 | 54 | 211 | 0.0 | 2.6 | 0.02 | 0.21 | 0.10 | 94 | 1009.8 |
| 20260904103055 | 54 | 0 | 0.0 | 1.7 | 0.02 | 0.21 | 0.10 | 93 | 1009.9 |
| 20260904101555 | 54 | 248 | 0.9 | 2.6 | 0.01 | 0.20 | 0.09 | 93 | 1010.0 |
| 20260904100052 | 54 | 213 | 0.0 | 3.5 | 0.01 | 0.20 | 0.09 | 93 | 1009.8 |
| 20260904094602 | 54 | 242 | 0.9 | 4.3 | 0.01 | 0.19 | 0.08 | 92 | 1009.8 |
| 20260904093105 | 54 | 196 | 0.9 | 6.1 | 0.02 | 0.19 | 0.08 | 92 | 1009.9 |
| 20260904091554 | 54 | 233 | 0.9 | 5.2 | 0.03 | 0.19 | 0.08 | 92 | 1009.9 |
| 20260904090050 | 54 | 168 | 0.9 | 4.3 | 0.03 | 0.19 | 0.08 | 92 | 1009.9 |
| 20260904084558 | 54 | 0 | 0.0 | 3.5 | 0.03 | 0.18 | 0.07 | 92 | 1010.1 |
| 20260904083057 | 55 | 242 | 1.7 | 6.1 | 0.04 | 0.17 | 0.06 | 92 | 1010.0 |
| 20260904081551 | 55 | 0 | 0.9 | 3.5 | 0.05 | 0.16 | 0.05 | 92 | 1010.0 |
| 20260904080059 | 55 | 0 | 0.0 | 2.6 | 0.05 | 0.16 | 0.05 | 92 | 1009.8 |
| 20260904074556 | 55 | 0 | 0.0 | 0.9 | 0.04 | 0.16 | 0.04 | 91 | 1010.2 |
| 20260904073053 | 55 | 0 | 0.0 | 3.5 | 0.02 | 0.14 | 0.02 | 90 | 1010.3 |
| 20260904071553 | 55 | 0 | 0.9 | 7.0 | 0.00 | 0.12 | 0.00 | 88 | 1009.9 |
| 20260904070106 | 55 | 179 | 1.7 | 7.0 | 0.00 | 0.12 | 0.00 | 88 | 1009.6 |
| 20260904064555 | 55 | 213 | 1.7 | 5.2 | 0.00 | 0.12 | 0.12 | 87 | 1009.7 |
| 20260904063059 | 55 | 234 | 0.0 | 3.5 | 0.00 | 0.12 | 0.12 | 88 | 1009.7 |
| 20260904061553 | 55 | 221 | 0.0 | 2.6 | 0.01 | 0.12 | 0.12 | 89 | 1009.7 |
| 20260904054601 | 55 | 217 | 0.0 | 4.3 | 0.02 | 0.12 | 0.12 | 90 | 1009.9 |
| 20260904053056 | 55 | 0 | 0.0 | 2.6 | 0.02 | 0.12 | 0.12 | 91 | 1010.1 |
| 20260904051558 | 56 | 0 | 0.9 | 3.5 | 0.01 | 0.11 | 0.11 | 90 | 1010.2 |
| 20260904050059 | 56 | 231 | 1.7 | 7.0 | 0.01 | 0.11 | 0.11 | 88 | 1010.3 |
| 20260904044553 | 56 | 0 | 0.9 | 3.5 | 0.00 | 0.10 | 0.10 | 89 | 1010.4 |
| 20260904043054 | 56 | 213 | 0.9 | 2.6 | 0.00 | 0.10 | 0.10 | 90 | 1010.3 |
| 20260904041600 | 56 | 0 | 0.0 | 1.7 | 0.00 | 0.10 | 0.10 | 91 | 1010.2 |
| 20260904040104 | 56 | 0 | 0.0 | 2.6 | 0.00 | 0.10 | 0.10 | 91 | 1010.4 |
| 20260904034555 | 56 | 0 | 0.0 | 1.7 | 0.00 | 0.10 | 0.10 | 92 | 1010.4 |
| 20260904033101 | 56 | 0 | 0.0 | 1.7 | 0.00 | 0.10 | 0.10 | 91 | 1010.2 |
| 20260904031557 | 56 | 246 | 0.0 | 1.7 | 0.00 | 0.10 | 0.10 | 91 | 1010.1 |
| 20260904030058 | 56 | 250 | 0.0 | 2.6 | 0.00 | 0.10 | 0.10 | 91 | 1010.1 |
| 20260904024556 | 56 | 0 | 0.0 | 1.7 | 0.00 | 0.10 | 0.10 | 91 | 1010.0 |
| 20260904023104 | 56 | 0 | 0.0 | 2.6 | 0.01 | 0.10 | 0.10 | 90 | 1010.0 |
| 20260904021605 | 57 | 0 | 0.0 | 2.6 | 0.01 | 0.10 | 0.10 | 90 | 1010.1 |